Check out our new BloomSky Weather System.

Active alerts

Fort Bend, TX
  Details for Fort Bend, TX River Flood Warning  +1 additional alert
Houston, TX
  Details for Houston, TX Wind Advisory
Galveston, TX
  Details for Galveston, TX Wind Advisory


Thunder radar  blitzortung!


Rain radar more information rain snow radar


Visit our other weather sites:

Template documentation
and downloads

And another site



Weather Underground History page Text

Daily Summary for January 29, 2018 Units:  English    Metric   Both
« Previous Day
Next Day »
Daily Weekly Monthly Yearly Custom
  High: Low: Average:
Temperature: TemperatureF °F 40.6 °F 52.7 °F
Dew Point: DewpointF °F 32.7 °F 36.4 °F
Humidity: Humidity % 33 % 57 %
Wind Speed: WindSpeedMPH mph 0.0 mph 3 mph
Wind Gust: WindSpeedGustMPH mph - -
Wind:- - WNW
Pressure: PressureIn in 30.31 in -
Precipitation: 0.00 in    
Historical Graphs
 
 
Tabular Data for January 29, 2018
Time Temperature Dew Point Pressure Wind Wind Speed Wind Gust Humidity Rainfall Rate (Hourly)
TemperatureF °F DewpointF °F PressureIn in Calm     Humidity % HourlyPrecipIn in
00:00 52.2 °F 44.4 °F 30.31 in NNW 1.0 mph 5.0 mph 75 % 0.00 in
00:05 52.0 °F 44.2 °F 30.32 in NW 2.0 mph 5.0 mph 75 % 0.00 in
00:10 52.0 °F 43.9 °F 30.32 in NNW 1.0 mph 5.0 mph 74 % 0.00 in
00:15 51.6 °F 43.5 °F 30.32 in NW 1.0 mph 5.0 mph 74 % 0.00 in
00:20 51.6 °F 43.3 °F 30.32 in NW 2.0 mph 5.0 mph 73 % 0.00 in
00:25 51.4 °F 43.2 °F 30.32 in North 3.0 mph 5.0 mph 73 % 0.00 in
00:30 51.4 °F 43.2 °F 30.32 in Calm   5.0 mph 73 % 0.00 in
00:35 51.4 °F 42.8 °F 30.32 in NW 1.0 mph 4.0 mph 72 % 0.00 in
00:40 51.3 °F 42.6 °F 30.32 in NW 1.0 mph 4.0 mph 72 % 0.00 in
00:45 51.1 °F 42.4 °F 30.32 in WNW 1.0 mph 4.0 mph 72 % 0.00 in
00:50 51.1 °F 42.1 °F 30.32 in NNE 2.0 mph 5.0 mph 71 % 0.00 in
00:55 50.7 °F 41.7 °F 30.32 in NNW 1.0 mph 5.0 mph 71 % 0.00 in
01:00 50.7 °F 41.7 °F 30.32 in NNW 2.0 mph 5.0 mph 71 % 0.00 in
01:05 50.5 °F 41.5 °F 30.32 in NW 1.0 mph 4.0 mph 71 % 0.00 in
01:10 50.5 °F 41.5 °F 30.33 in WNW 1.0 mph 4.0 mph 71 % 0.00 in
01:15 50.4 °F 41.4 °F 30.33 in NW 2.0 mph 3.0 mph 71 % 0.00 in
01:20 50.2 °F 41.2 °F 30.32 in NW 1.0 mph 3.0 mph 71 % 0.00 in
01:25 50.2 °F 41.2 °F 30.33 in Calm   3.0 mph 71 % 0.00 in
01:30 49.6 °F 40.6 °F 30.33 in Calm   3.0 mph 71 % 0.00 in
01:35 49.5 °F 40.5 °F 30.33 in Calm   2.0 mph 71 % 0.00 in
01:40 48.9 °F 40.3 °F 30.33 in WNW 1.0 mph 1.0 mph 72 % 0.00 in
01:45 48.9 °F 40.3 °F 30.33 in Calm   2.0 mph 72 % 0.00 in
01:50 48.9 °F 40.3 °F 30.33 in Calm   2.0 mph 72 % 0.00 in
01:55 48.7 °F 40.1 °F 30.33 in Calm   2.0 mph 72 % 0.00 in
02:00 48.6 °F 40.3 °F 30.33 in Calm   2.0 mph 73 % 0.00 in
02:05 48.4 °F 40.1 °F 30.33 in Calm   2.0 mph 73 % 0.00 in
02:10 48.2 °F 39.9 °F 30.33 in Calm   1.0 mph 73 % 0.00 in
02:15 48.0 °F 39.7 °F 30.33 in Calm   1.0 mph 73 % 0.00 in
02:20 48.0 °F 39.7 °F 30.33 in Calm   1.0 mph 73 % 0.00 in
02:25 47.8 °F 39.6 °F 30.33 in Calm   1.0 mph 73 % 0.00 in
02:30 47.7 °F 39.7 °F 30.33 in NNW 1.0 mph 1.0 mph 74 % 0.00 in
02:35 47.5 °F 39.6 °F 30.33 in Calm   1.0 mph 74 % 0.00 in
02:40 47.1 °F 39.6 °F 30.33 in Calm   1.0 mph 75 % 0.00 in
02:45 46.8 °F 39.6 °F 30.33 in Calm   1.0 mph 76 % 0.00 in
02:50 46.6 °F 39.4 °F 30.33 in Calm   1.0 mph 76 % 0.00 in
02:55 46.4 °F 39.2 °F 30.33 in Calm   1.0 mph 76 % 0.00 in
03:00 46.2 °F 39.4 °F 30.33 in Calm   1.0 mph 77 % 0.00 in
03:05 45.9 °F 39.0 °F 30.33 in Calm   1.0 mph 77 % 0.00 in
03:10 45.3 °F 38.5 °F 30.33 in Calm   1.0 mph 77 % 0.00 in
03:15 44.8 °F 37.9 °F 30.33 in Calm     77 % 0.00 in
03:20 44.2 °F 38.5 °F 30.33 in Calm   1.0 mph 80 % 0.00 in
03:25 44.2 °F 39.0 °F 30.33 in Calm   1.0 mph 82 % 0.00 in
03:30 44.1 °F 38.8 °F 30.34 in Calm   1.0 mph 82 % 0.00 in
03:35 43.9 °F 39.0 °F 30.33 in Calm   1.0 mph 83 % 0.00 in
03:40 43.9 °F 39.4 °F 30.33 in Calm   1.0 mph 84 % 0.00 in
03:45 43.5 °F 39.0 °F 30.33 in Calm   1.0 mph 84 % 0.00 in
03:50 43.2 °F 38.3 °F 30.33 in Calm     83 % 0.00 in
03:55 42.4 °F 37.6 °F 30.33 in Calm     83 % 0.00 in
04:00 42.1 °F 37.9 °F 30.33 in Calm     85 % 0.00 in
04:05 42.1 °F 38.1 °F 30.33 in Calm     86 % 0.00 in
04:10 42.1 °F 38.1 °F 30.33 in Calm     86 % 0.00 in
04:15 42.1 °F 38.1 °F 30.33 in Calm     86 % 0.00 in
04:20 41.9 °F 38.3 °F 30.33 in NNW 1.0 mph 1.0 mph 87 % 0.00 in
04:25 42.3 °F 38.7 °F 30.33 in Calm   1.0 mph 87 % 0.00 in
04:30 42.6 °F 38.7 °F 30.33 in Calm   1.0 mph 86 % 0.00 in
04:35 43.0 °F 39.0 °F 30.33 in Calm   1.0 mph 86 % 0.00 in
04:40 43.0 °F 38.8 °F 30.33 in Calm   1.0 mph 85 % 0.00 in
04:46 43.0 °F 38.8 °F 30.33 in Calm   1.0 mph 85 % 0.00 in
04:51 43.2 °F 39.0 °F 30.33 in Calm   2.0 mph 85 % 0.00 in
04:55 43.2 °F 39.0 °F 30.33 in Calm   2.0 mph 85 % 0.00 in
05:00 43.3 °F 38.8 °F 30.34 in NNW 1.0 mph 3.0 mph 84 % 0.00 in
05:05 43.5 °F 38.7 °F 30.34 in North 2.0 mph 3.0 mph 83 % 0.00 in
05:11 43.9 °F 38.7 °F 30.34 in NW 1.0 mph 3.0 mph 82 % 0.00 in
05:16 43.9 °F 38.5 °F 30.34 in NW 2.0 mph 3.0 mph 81 % 0.00 in
05:21 44.1 °F 38.3 °F 30.35 in NNW 1.0 mph 3.0 mph 80 % 0.00 in
05:26 44.4 °F 38.3 °F 30.35 in NW 1.0 mph 3.0 mph 79 % 0.00 in
05:31 44.4 °F 38.3 °F 30.35 in NW 1.0 mph 3.0 mph 79 % 0.00 in
05:36 44.4 °F 38.3 °F 30.35 in NNW 1.0 mph 2.0 mph 79 % 0.00 in
05:41 44.6 °F 38.5 °F 30.36 in WNW 2.0 mph 3.0 mph 79 % 0.00 in
05:46 44.6 °F 38.1 °F 30.36 in NW 1.0 mph 3.0 mph 78 % 0.00 in
05:51 44.6 °F 38.1 °F 30.36 in NNW 2.0 mph 4.0 mph 78 % 0.00 in
05:56 44.6 °F 38.1 °F 30.37 in NW 2.0 mph 4.0 mph 78 % 0.00 in
06:01 44.4 °F 37.9 °F 30.37 in NW 1.0 mph 4.0 mph 78 % 0.00 in
06:06 44.4 °F 38.3 °F 30.37 in NW 1.0 mph 3.0 mph 79 % 0.00 in
06:11 44.2 °F 38.1 °F 30.37 in NNW 1.0 mph 2.0 mph 79 % 0.00 in
06:16 44.1 °F 37.9 °F 30.37 in NW 1.0 mph 2.0 mph 79 % 0.00 in
06:21 44.1 °F 37.9 °F 30.38 in NW 1.0 mph 2.0 mph 79 % 0.00 in
06:26 43.9 °F 38.1 °F 30.38 in Calm   2.0 mph 80 % 0.00 in
06:31 43.7 °F 37.9 °F 30.38 in Calm   2.0 mph 80 % 0.00 in
06:36 43.3 °F 37.6 °F 30.38 in Calm   2.0 mph 80 % 0.00 in
06:41 43.0 °F 37.2 °F 30.38 in Calm   1.0 mph 80 % 0.00 in
06:46 42.6 °F 37.2 °F 30.39 in Calm   1.0 mph 81 % 0.00 in
06:51 42.3 °F 36.9 °F 30.39 in Calm   1.0 mph 81 % 0.00 in
06:56 41.9 °F 36.9 °F 30.39 in Calm   1.0 mph 82 % 0.00 in
07:01 41.5 °F 36.5 °F 30.39 in Calm   1.0 mph 82 % 0.00 in
07:06 41.2 °F 36.5 °F 30.40 in Calm   1.0 mph 83 % 0.00 in
07:11 40.8 °F 36.1 °F 30.40 in Calm   1.0 mph 83 % 0.00 in
07:16 40.6 °F 36.1 °F 30.40 in Calm   1.0 mph 84 % 0.00 in
07:21 40.8 °F 36.7 °F 30.40 in Calm   1.0 mph 85 % 0.00 in
07:26 41.0 °F 36.5 °F 30.40 in Calm   1.0 mph 84 % 0.00 in
07:31 41.2 °F 36.7 °F 30.40 in NNW 1.0 mph 2.0 mph 84 % 0.00 in
07:36 41.5 °F 36.7 °F 30.41 in North 1.0 mph 2.0 mph 83 % 0.00 in
07:41 41.7 °F 36.7 °F 30.41 in Calm   2.0 mph 82 % 0.00 in
07:46 42.1 °F 37.0 °F 30.41 in Calm   1.0 mph 82 % 0.00 in
07:51 42.4 °F 37.0 °F 30.41 in Calm   1.0 mph 81 % 0.00 in
07:56 43.2 °F 37.4 °F 30.41 in Calm   2.0 mph 80 % 0.00 in
08:01 43.7 °F 37.2 °F 30.41 in NW 2.0 mph 2.0 mph 78 % 0.00 in
08:06 44.4 °F 37.4 °F 30.41 in NNW 1.0 mph 4.0 mph 76 % 0.00 in
08:11 45.1 °F 37.4 °F 30.41 in NW 2.0 mph 4.0 mph 74 % 0.00 in
08:16 45.7 °F 37.6 °F 30.41 in NW 2.0 mph 5.0 mph 73 % 0.00 in
08:21 46.2 °F 37.8 °F 30.41 in NNW 4.0 mph 5.0 mph 72 % 0.00 in
08:26 46.8 °F 37.6 °F 30.42 in NW 4.0 mph 5.0 mph 70 % 0.00 in
08:31 47.3 °F 37.6 °F 30.42 in NW 2.0 mph 6.0 mph 69 % 0.00 in
08:36 47.8 °F 38.1 °F 30.42 in WNW 2.0 mph 6.0 mph 69 % 0.00 in
08:41 48.4 °F 37.9 °F 30.42 in NW 2.0 mph 6.0 mph 67 % 0.00 in
08:46 48.7 °F 37.9 °F 30.42 in WNW 1.0 mph 6.0 mph 66 % 0.00 in
08:51 49.5 °F 38.1 °F 30.42 in NW 1.0 mph 6.0 mph 65 % 0.00 in
08:56 50.2 °F 38.5 °F 30.42 in NNW 5.0 mph 6.0 mph 64 % 0.00 in
09:01 50.5 °F 37.6 °F 30.43 in NNW 2.0 mph 7.0 mph 61 % 0.00 in
09:06 51.3 °F 38.3 °F 30.43 in NNW 6.0 mph 7.0 mph 61 % 0.00 in
09:11 51.8 °F 37.9 °F 30.43 in WNW 2.0 mph 8.0 mph 59 % 0.00 in
09:16 52.3 °F 37.6 °F 30.43 in North 5.0 mph 8.0 mph 57 % 0.00 in
09:21 52.7 °F 37.9 °F 30.43 in WNW 1.0 mph 8.0 mph 57 % 0.00 in
09:26 53.4 °F 38.1 °F 30.43 in NNW 3.0 mph 7.0 mph 56 % 0.00 in
09:31 54.0 °F 37.8 °F 30.43 in NW 2.0 mph 7.0 mph 54 % 0.00 in
09:36 54.1 °F 38.3 °F 30.43 in WNW 2.0 mph 6.0 mph 55 % 0.00 in
09:41 55.0 °F 37.8 °F 30.43 in NW 3.0 mph 6.0 mph 52 % 0.00 in
09:46 55.6 °F 37.8 °F 30.44 in WNW 1.0 mph 6.0 mph 51 % 0.00 in
09:51 56.1 °F 37.2 °F 30.44 in NW 2.0 mph 6.0 mph 49 % 0.00 in
09:56 56.5 °F 37.0 °F 30.44 in NE 5.0 mph 8.0 mph 48 % 0.00 in
10:01 57.0 °F 37.0 °F 30.45 in North 2.0 mph 8.0 mph 47 % 0.00 in
10:06 57.6 °F 35.8 °F 30.45 in NW 6.0 mph 8.0 mph 44 % 0.00 in
10:11 57.9 °F 36.1 °F 30.45 in North 4.0 mph 8.0 mph 44 % 0.00 in
10:16 58.5 °F 36.0 °F 30.45 in WNW 3.0 mph 8.0 mph 43 % 0.00 in
10:21 58.6 °F 35.1 °F 30.45 in North 6.0 mph 8.0 mph 41 % 0.00 in
10:26 58.6 °F 35.1 °F 30.45 in NW 5.0 mph 10.0 mph 41 % 0.00 in
10:31 58.8 °F 35.2 °F 30.45 in NNW 7.0 mph 10.0 mph 41 % 0.00 in
10:36 58.8 °F 35.2 °F 30.45 in NNW 4.0 mph 11.0 mph 41 % 0.00 in
10:41 58.6 °F 35.1 °F 30.45 in WNW 7.0 mph 11.0 mph 41 % 0.00 in
10:46 58.5 °F 34.9 °F 30.45 in NW 4.0 mph 12.0 mph 41 % 0.00 in
10:51 58.8 °F 35.2 °F 30.45 in NNW 9.0 mph 12.0 mph 41 % 0.00 in
10:56 59.4 °F 35.1 °F 30.45 in NW 5.0 mph 12.0 mph 40 % 0.00 in
11:01 59.4 °F 34.3 °F 30.45 in NNW 1.0 mph 10.0 mph 39 % 0.00 in
11:06 60.1 °F 35.6 °F 30.45 in NNW 4.0 mph 10.0 mph 40 % 0.00 in
11:11 60.6 °F 35.6 °F 30.44 in NW 4.0 mph 10.0 mph 39 % 0.00 in
11:16 60.3 °F 33.8 °F 30.44 in NW 4.0 mph 12.0 mph 37 % 0.00 in
11:21 60.3 °F 33.8 °F 30.44 in NNW 12.0 mph 12.0 mph 37 % 0.00 in
11:26 60.6 °F 34.2 °F 30.44 in NNE 9.0 mph 12.0 mph 37 % 0.00 in
11:31 60.6 °F 34.9 °F 30.45 in West 7.0 mph 12.0 mph 38 % 0.00 in
11:36 61.0 °F 35.2 °F 30.44 in NNE 8.0 mph 12.0 mph 38 % 0.00 in
11:41 61.0 °F 33.8 °F 30.44 in NW 5.0 mph 11.0 mph 36 % 0.00 in
11:46 60.6 °F 34.9 °F 30.44 in NW 6.0 mph 13.0 mph 38 % 0.00 in
11:51 60.6 °F 36.1 °F 30.44 in NW 8.0 mph 13.0 mph 40 % 0.00 in
11:56 60.6 °F 34.9 °F 30.44 in North 5.0 mph 13.0 mph 38 % 0.00 in
12:01 61.0 °F 35.8 °F 30.43 in West 6.0 mph 13.0 mph 39 % 0.00 in
12:06 61.0 °F 35.8 °F 30.43 in North 5.0 mph 13.0 mph 39 % 0.00 in
12:11 61.3 °F 36.1 °F 30.43 in North 6.0 mph 10.0 mph 39 % 0.00 in
12:16 61.3 °F 36.1 °F 30.42 in NW 5.0 mph 12.0 mph 39 % 0.00 in
12:21 61.3 °F 35.6 °F 30.42 in NW 5.0 mph 12.0 mph 38 % 0.00 in
12:26 61.5 °F 36.3 °F 30.41 in NNW 8.0 mph 12.0 mph 39 % 0.00 in
12:31 61.9 °F 36.7 °F 30.42 in NNW 9.0 mph 13.0 mph 39 % 0.00 in
12:37 61.9 °F 36.0 °F 30.41 in NW 8.0 mph 14.0 mph 38 % 0.00 in
12:42 62.1 °F 36.9 °F 30.41 in NE 5.0 mph 14.0 mph 39 % 0.00 in
12:47 62.2 °F 37.0 °F 30.41 in NW 4.0 mph 14.0 mph 39 % 0.00 in
12:52 62.1 °F 34.9 °F 30.40 in NW 10.0 mph 15.0 mph 36 % 0.00 in
12:57 61.5 °F 34.3 °F 30.40 in NW 6.0 mph 16.0 mph 36 % 0.00 in
13:02 61.9 °F 34.7 °F 30.40 in NW 9.0 mph 16.0 mph 36 % 0.00 in
13:07 62.1 °F 35.4 °F 30.40 in WNW 9.0 mph 16.0 mph 37 % 0.00 in
13:12 62.2 °F 34.9 °F 30.40 in NNW 8.0 mph 16.0 mph 36 % 0.00 in
13:17 62.2 °F 34.9 °F 30.39 in NW 9.0 mph 16.0 mph 36 % 0.00 in
13:22 62.4 °F 32.9 °F 30.39 in NW 10.0 mph 18.0 mph 33 % 0.00 in
13:27 62.2 °F 33.4 °F 30.39 in NNE 10.0 mph 22.0 mph 34 % 0.00 in
13:32 62.6 °F 33.1 °F 30.38 in ENE 8.0 mph 22.0 mph 33 % 0.00 in
13:37 62.4 °F 33.6 °F 30.38 in NNW 7.0 mph 22.0 mph 34 % 0.00 in
13:42 62.4 °F 34.3 °F 30.38 in NNW 8.0 mph 17.0 mph 35 % 0.00 in
13:47 62.8 °F 34.7 °F 30.38 in NW 9.0 mph 20.0 mph 35 % 0.00 in
13:52 62.8 °F 35.4 °F 30.38 in NNW 13.0 mph 20.0 mph 36 % 0.00 in
13:57 63.0 °F 36.3 °F 30.38 in NW 7.0 mph 20.0 mph 37 % 0.00 in
14:02 63.0 °F 35.6 °F 30.38 in NNW 6.0 mph 19.0 mph 36 % 0.00 in
14:07 63.1 °F 35.8 °F 30.38 in NNW 15.0 mph 19.0 mph 36 % 0.00 in
14:12 63.1 °F 35.8 °F 30.38 in NW 5.0 mph 15.0 mph 36 % 0.00 in
14:17 63.3 °F 36.7 °F 30.38 in WNW 8.0 mph 15.0 mph 37 % 0.00 in
14:22 63.3 °F 36.0 °F 30.38 in NNW 5.0 mph 15.0 mph 36 % 0.00 in
14:27 63.7 °F 36.9 °F 30.38 in NW 5.0 mph 15.0 mph 37 % 0.00 in
14:32 63.7 °F 37.6 °F 30.38 in NNW 13.0 mph 15.0 mph 38 % 0.00 in
14:37 63.7 °F 36.1 °F 30.37 in NW 5.0 mph 18.0 mph 36 % 0.00 in
14:42 63.9 °F 37.0 °F 30.37 in NNE 5.0 mph 18.0 mph 37 % 0.00 in
14:47 64.0 °F 36.5 °F 30.37 in NW 8.0 mph 18.0 mph 36 % 0.00 in
14:52 63.9 °F 36.3 °F 30.37 in WNW 7.0 mph 15.0 mph 36 % 0.00 in
14:57 63.9 °F 37.0 °F 30.37 in NNW 6.0 mph 13.0 mph 37 % 0.00 in
15:02 64.0 °F 36.5 °F 30.37 in NW 7.0 mph 16.0 mph 36 % 0.00 in
15:07 63.9 °F 36.3 °F 30.37 in NW 9.0 mph 16.0 mph 36 % 0.00 in
15:12 63.9 °F 36.3 °F 30.37 in NW 6.0 mph 16.0 mph 36 % 0.00 in
15:17 64.0 °F 34.3 °F 30.37 in NW 11.0 mph 14.0 mph 33 % 0.00 in
15:22 64.0 °F 34.3 °F 30.37 in North 9.0 mph 15.0 mph 33 % 0.00 in
15:27 63.9 °F 34.9 °F 30.37 in NW 5.0 mph 15.0 mph 34 % 0.00 in
15:32 64.0 °F 35.1 °F 30.36 in NNW 4.0 mph 15.0 mph 34 % 0.00 in
15:37 64.0 °F 35.1 °F 30.37 in NNW 15.0 mph 15.0 mph 34 % 0.00 in
15:42 63.9 °F 34.9 °F 30.37 in NNW 10.0 mph 15.0 mph 34 % 0.00 in
15:47 63.9 °F 34.9 °F 30.37 in NNW 4.0 mph 16.0 mph 34 % 0.00 in
15:52 63.9 °F 34.2 °F 30.37 in NW 8.0 mph 16.0 mph 33 % 0.00 in
15:57 63.7 °F 34.0 °F 30.37 in NW 6.0 mph 17.0 mph 33 % 0.00 in
16:02 63.9 °F 34.2 °F 30.37 in WNW 9.0 mph 17.0 mph 33 % 0.00 in
16:07 63.5 °F 34.7 °F 30.37 in WNW 3.0 mph 17.0 mph 34 % 0.00 in
16:12 63.5 °F 33.8 °F 30.38 in NE 6.0 mph 16.0 mph 33 % 0.00 in
16:17 63.3 °F 34.5 °F 30.38 in NW 5.0 mph 16.0 mph 34 % 0.00 in
16:22 63.3 °F 33.8 °F 30.38 in NNW 9.0 mph 15.0 mph 33 % 0.00 in
16:27 63.0 °F 34.2 °F 30.38 in NW 8.0 mph 14.0 mph 34 % 0.00 in
16:32 62.8 °F 34.0 °F 30.38 in West 5.0 mph 15.0 mph 34 % 0.00 in
16:37 62.6 °F 33.8 °F 30.38 in North 11.0 mph 16.0 mph 34 % 0.00 in
16:42 62.4 °F 33.6 °F 30.38 in NNW 8.0 mph 16.0 mph 34 % 0.00 in
16:47 62.2 °F 33.4 °F 30.38 in NNW 6.0 mph 17.0 mph 34 % 0.00 in
16:52 62.2 °F 34.2 °F 30.38 in NW 8.0 mph 17.0 mph 35 % 0.00 in
16:57 62.1 °F 34.2 °F 30.38 in NW 6.0 mph 17.0 mph 35 % 0.00 in
17:02 62.1 °F 34.2 °F 30.38 in NW 5.0 mph 15.0 mph 35 % 0.00 in
17:07 61.9 °F 34.0 °F 30.38 in NW 4.0 mph 15.0 mph 35 % 0.00 in
17:12 61.5 °F 34.3 °F 30.38 in NW 3.0 mph 12.0 mph 36 % 0.00 in
17:17 61.3 °F 34.2 °F 30.39 in NW 5.0 mph 16.0 mph 36 % 0.00 in
17:22 61.0 °F 33.1 °F 30.39 in NNW 7.0 mph 16.0 mph 35 % 0.00 in
17:27 60.6 °F 32.9 °F 30.39 in NW 5.0 mph 16.0 mph 35 % 0.00 in
17:32 60.4 °F 32.7 °F 30.40 in NW 7.0 mph 16.0 mph 35 % 0.00 in
17:37 60.3 °F 33.3 °F 30.39 in NNW 4.0 mph 16.0 mph 36 % 0.00 in
17:42 60.1 °F 33.8 °F 30.40 in NW 5.0 mph 14.0 mph 37 % 0.00 in
17:47 59.7 °F 34.0 °F 30.40 in NNW 5.0 mph 14.0 mph 38 % 0.00 in
17:53 59.4 °F 33.8 °F 30.40 in NW 2.0 mph 11.0 mph 38 % 0.00 in
17:58 59.2 °F 33.6 °F 30.40 in NNW 5.0 mph 11.0 mph 38 % 0.00 in
18:03 58.8 °F 34.0 °F 30.40 in NW 1.0 mph 10.0 mph 39 % 0.00 in
18:08 58.6 °F 33.8 °F 30.40 in NW 3.0 mph 10.0 mph 39 % 0.00 in
18:13 58.5 °F 34.2 °F 30.40 in NNW 5.0 mph 8.0 mph 40 % 0.00 in
18:18 58.3 °F 34.7 °F 30.41 in NNW 4.0 mph 9.0 mph 41 % 0.00 in
18:23 57.9 °F 34.3 °F 30.41 in NW 4.0 mph 9.0 mph 41 % 0.00 in
18:28 57.7 °F 34.2 °F 30.41 in North 4.0 mph 9.0 mph 41 % 0.00 in
18:33 57.6 °F 34.0 °F 30.42 in NNW 3.0 mph 9.0 mph 41 % 0.00 in
18:38 57.2 °F 33.6 °F 30.42 in NW 3.0 mph 8.0 mph 41 % 0.00 in
18:43 56.8 °F 34.0 °F 30.43 in NW 1.0 mph 6.0 mph 42 % 0.00 in
18:48 56.7 °F 34.3 °F 30.43 in NNW 1.0 mph 6.0 mph 43 % 0.00 in
18:53 56.3 °F 34.7 °F 30.43 in Calm   6.0 mph 44 % 0.00 in
18:58 55.9 °F 35.4 °F 30.44 in NW 2.0 mph 6.0 mph 46 % 0.00 in
19:03 55.8 °F 35.2 °F 30.44 in NNW 3.0 mph 6.0 mph 46 % 0.00 in
19:08 55.6 °F 35.1 °F 30.44 in NW 4.0 mph 4.0 mph 46 % 0.00 in
19:13 55.2 °F 34.9 °F 30.44 in NNW 1.0 mph 5.0 mph 46 % 0.00 in
19:18 55.0 °F 35.2 °F 30.44 in NW 3.0 mph 5.0 mph 47 % 0.00 in
19:23 54.9 °F 35.1 °F 30.44 in NW 2.0 mph 5.0 mph 47 % 0.00 in
19:28 54.7 °F 35.4 °F 30.44 in NW 1.0 mph 4.0 mph 48 % 0.00 in
19:33 54.3 °F 35.1 °F 30.44 in NW 1.0 mph 4.0 mph 48 % 0.00 in
19:38 54.0 °F 34.7 °F 30.44 in NNW 2.0 mph 3.0 mph 48 % 0.00 in
19:43 54.0 °F 34.7 °F 30.45 in Calm   3.0 mph 48 % 0.00 in
19:48 53.8 °F 35.1 °F 30.45 in NW 1.0 mph 3.0 mph 49 % 0.00 in
19:53 53.4 °F 34.7 °F 30.45 in NW 1.0 mph 3.0 mph 49 % 0.00 in
19:58 53.4 °F 34.7 °F 30.45 in NW 2.0 mph 3.0 mph 49 % 0.00 in
20:03 53.2 °F 35.1 °F 30.45 in NW 2.0 mph 4.0 mph 50 % 0.00 in
20:08 52.9 °F 34.7 °F 30.46 in NW 2.0 mph 4.0 mph 50 % 0.00 in
20:13 52.7 °F 34.5 °F 30.46 in NW 2.0 mph 4.0 mph 50 % 0.00 in
20:18 52.5 °F 34.9 °F 30.46 in NNW 1.0 mph 3.0 mph 51 % 0.00 in
20:23 52.3 °F 34.7 °F 30.46 in NW 1.0 mph 3.0 mph 51 % 0.00 in
20:28 52.2 °F 34.5 °F 30.46 in NNW 2.0 mph 4.0 mph 51 % 0.00 in
20:33 52.2 °F 35.1 °F 30.46 in WNW 2.0 mph 4.0 mph 52 % 0.00 in
20:38 52.0 °F 34.9 °F 30.46 in NW 2.0 mph 4.0 mph 52 % 0.00 in
20:43 51.6 °F 35.1 °F 30.47 in NW 2.0 mph 4.0 mph 53 % 0.00 in
20:48 51.4 °F 34.9 °F 30.47 in West 2.0 mph 4.0 mph 53 % 0.00 in
20:53 51.3 °F 35.2 °F 30.47 in NW 1.0 mph 3.0 mph 54 % 0.00 in
20:58 51.1 °F 35.1 °F 30.47 in NW 1.0 mph 3.0 mph 54 % 0.00 in
21:03 50.7 °F 34.7 °F 30.47 in NNW 2.0 mph 3.0 mph 54 % 0.00 in
21:08 50.7 °F 34.7 °F 30.47 in NW 3.0 mph 5.0 mph 54 % 0.00 in
21:13 50.7 °F 34.7 °F 30.48 in NNW 1.0 mph 6.0 mph 54 % 0.00 in
21:18 50.7 °F 34.7 °F 30.48 in NW 1.0 mph 6.0 mph 54 % 0.00 in
21:23 50.5 °F 34.5 °F 30.48 in NNW 1.0 mph 6.0 mph 54 % 0.00 in
21:28 50.5 °F 35.1 °F 30.48 in NW 1.0 mph 5.0 mph 55 % 0.00 in
21:33 50.4 °F 34.9 °F 30.48 in Calm   5.0 mph 55 % 0.00 in
21:38 50.4 °F 34.9 °F 30.48 in WNW 3.0 mph 6.0 mph 55 % 0.00 in
21:43 50.2 °F 34.7 °F 30.49 in Calm   6.0 mph 55 % 0.00 in
21:48 50.0 °F 34.9 °F 30.49 in Calm   6.0 mph 56 % 0.00 in
21:53 49.8 °F 34.7 °F 30.49 in NW 1.0 mph 5.0 mph 56 % 0.00 in
21:58 49.5 °F 34.3 °F 30.49 in Calm   5.0 mph 56 % 0.00 in
22:03 49.3 °F 34.7 °F 30.50 in Calm   5.0 mph 57 % 0.00 in
22:08 48.9 °F 34.3 °F 30.49 in Calm   3.0 mph 57 % 0.00 in
22:13 48.7 °F 34.7 °F 30.50 in NW 2.0 mph 2.0 mph 58 % 0.00 in
22:18 48.7 °F 34.7 °F 30.50 in Calm   2.0 mph 58 % 0.00 in
22:23 48.4 °F 34.7 °F 30.50 in Calm   2.0 mph 59 % 0.00 in
22:28 48.2 °F 34.5 °F 30.50 in Calm   2.0 mph 59 % 0.00 in
22:33 48.0 °F 34.9 °F 30.50 in NW 1.0 mph 1.0 mph 60 % 0.00 in
22:38 47.8 °F 34.7 °F 30.50 in Calm   1.0 mph 60 % 0.00 in
22:43 47.7 °F 34.5 °F 30.50 in Calm   1.0 mph 60 % 0.00 in
22:48 47.7 °F 34.9 °F 30.50 in NNW 1.0 mph 2.0 mph 61 % 0.00 in
22:53 47.5 °F 34.3 °F 30.50 in NNW 1.0 mph 3.0 mph 60 % 0.00 in
22:58 47.1 °F 34.3 °F 30.50 in Calm   3.0 mph 61 % 0.00 in
23:03 47.1 °F 34.3 °F 30.50 in NNW 2.0 mph 3.0 mph 61 % 0.00 in
23:08 47.1 °F 34.3 °F 30.50 in NNW 1.0 mph 3.0 mph 61 % 0.00 in
23:13 46.9 °F 33.8 °F 30.50 in NW 1.0 mph 3.0 mph 60 % 0.00 in
23:18 46.9 °F 34.2 °F 30.50 in NNW 1.0 mph 3.0 mph 61 % 0.00 in
23:23 46.8 °F 34.0 °F 30.50 in NNW 2.0 mph 3.0 mph 61 % 0.00 in
23:28 46.8 °F 34.0 °F 30.50 in Calm   3.0 mph 61 % 0.00 in
23:33 46.8 °F 34.0 °F 30.50 in NNW 2.0 mph 3.0 mph 61 % 0.00 in
23:38 46.8 °F 33.6 °F 30.50 in NNW 1.0 mph 3.0 mph 60 % 0.00 in
23:43 46.8 °F 33.6 °F 30.50 in NW 1.0 mph 3.0 mph 60 % 0.00 in
23:48 46.6 °F 33.4 °F 30.50 in NW 1.0 mph 4.0 mph 60 % 0.00 in
23:53 46.6 °F 33.4 °F 30.50 in NNW 1.0 mph 4.0 mph 60 % 0.00 in
23:58 46.4 °F 33.3 °F 30.50 in Calm   4.0 mph 60 % 0.00 in
Spring, Texas: Villages of Bridgestone
Compliments of Weather Underground - 2.75 mb

Script developed by  Jim McMurry - jmcmurry@mwt.net Adapted for the template by  Wim van der Kuil - Leuven-Template.eu

You find our weather info also at:

UK Metoffice

WeatherCloud

Weather Underground

Mid-South Weather Network

AWEKAS

Citizen Weather Observer Program (CWOP)

HAMweather, WeatherForYou, PWS Weather

Equipment we use:

Weather-station
Davis Vantage Vue

Weather-program
Meteohub

Weather-server
Debian 7.9 x86 (Guest)

Provider
DreamHost

Davis Vantage Vue

Meteohub

Debian 7.9 x86 (Guest)

DreamHost